User: anonymous   Login
Location: Unspecified
(0.0000°N, 0.0000°E)
Time: 17:21:54
(UTC+00:00)
Language:

CANX 3A (UNIBRITE) - Orbit

View from above orbital plane
View from above orbital plane
View from above satellite
View from above satellite

Ground track
Ground track

The orbit data is extracted from the following two-line orbital elements,

1 39092U 13009G   15184.47251118  .00000069  00000-0  40044-4 0  9995
2 39092 098.6028 022.7834 0008217 257.7326 102.2939 14.34767790122980
Epoch (UTC): 03 July 2015 11:20:24
Eccentricity: 0.0008217
inclination: 98.6028°
perigee height: 770 km
apogee height: 782 km
right ascension of ascending node: 22.7834°
argument of perigee: 257.7326°
revolutions per day: 14.34767790
mean anomaly at epoch: 102.2939°
orbit number at epoch: 12298

The dashed part of the orbit path shows where the satellite is in the earth's shadow,  

DLR